Apalachicola, FL

1:26 PM EDT on October 20, 2017 (GMT -0400)
Apalachicola Municipal

Weather History for KAAF - September, 2012

Change the Weather History Date:

Monday, September 3, 2012

  Actual Average Record
Temperature  
Mean Temperature 82 °F 81 °F  
Max Temperature 89 °F 89 °F 93 °F (1944)
Min Temperature 74 °F 73 °F 69 °F (1967)
Degree Days  
Heating Degree Days 0    
Month to date heating degree days 0  
Since 1 July heating degree days 0  
Cooling Degree Days 17    
Month to date cooling degree days 50  
Year to date cooling degree days 2152  
Growing Degree Days 32 (Base 50)    
Moisture  
Dew Point 74 °F    
Average Humidity 74    
Maximum Humidity 88    
Minimum Humidity 59    
Precipitation  
Precipitation 0.00 in 0.24 in 3.43 in (1967)
Month to date precipitation 0.04 0.72  
Year to date precipitation 49.58 40.66  
Sea Level Pressure  
Sea Level Pressure 30.01 in    
Wind  
Wind Speed 6 mph (West)    
Max Wind Speed 16 mph    
Max Gust Speed 22 mph    
Visibility 10 miles    
Events      
T = Trace of Precipitation, MM = Missing Value Source: NWS Daily Summary

Daily Weather History Graph

Daily Weather History Graph

Search for Another Location

Airport or City:

Trip Planner

Search our weather history database for the weather conditions in past years. The results will help you decide how hot, cold, wet, or windy it might be!

Date:

Astronomy

Sep. 03, 2012 Rise Set
Actual Time 7:18 AM EDT 7:59 PM EDT
Civil Twilight 6:54 AM EDT 8:23 PM EDT
Nautical Twilight 6:25 AM EDT 8:51 PM EDT
Astronomical Twilight 5:56 AM EDT 9:20 PM EDT
Moon 9:39 PM EDT (9/3) 10:06 AM EDT (9/3)
Length of Visible Light 13h 29m
Length of Day
12h 40m
Waning Gibbous, 90% of the Moon is Illuminated
Sep 3
Waning Gibbous
Sep 8
Last Quarter
Sep 15
New
Sep 22
First Quarter
Sep 29
Full

Hourly Weather History & Observations

Time (EDT) Temp. Heat Index Dew Point Humidity Pressure Visibility Wind Dir Wind Speed Gust Speed Precip Events Conditions
12:53 AM 78.1 °F - 73.0 °F 84% 30.02 in 10.0 mi Calm Calm - N/A   Clear
1:53 AM 77.0 °F - 73.0 °F 88% 30.01 in 10.0 mi Calm Calm - N/A   Clear
2:53 AM 77.0 °F - 73.0 °F 88% 30.00 in 10.0 mi Calm Calm - N/A   Clear
3:53 AM 75.9 °F - 72.0 °F 87% 30.00 in 10.0 mi Calm Calm - N/A   Clear
4:53 AM 75.2 °F - 71.6 °F 89% 29.99 in 10.0 mi Calm Calm - N/A   Clear
5:53 AM 75.0 °F - 72.0 °F 90% 30.00 in 10.0 mi Calm Calm - N/A   Clear
6:53 AM 75.0 °F - 72.0 °F 90% 30.01 in 10.0 mi Calm Calm - N/A   Clear
7:53 AM 77.0 °F - 73.9 °F 90% 30.03 in 10.0 mi Calm Calm - N/A   Clear
8:53 AM 82.0 °F 88.6 °F 75.0 °F 79% 30.05 in 10.0 mi West 4.6 mph - N/A   Clear
9:53 AM 84.0 °F 91.2 °F 73.9 °F 72% 30.06 in 10.0 mi WNW 5.8 mph - N/A   Mostly Cloudy
10:53 AM 86.0 °F 93.8 °F 73.9 °F 67% 30.06 in 10.0 mi WNW 5.8 mph - N/A   Overcast
11:53 AM 87.1 °F 95.4 °F 73.9 °F 65% 30.05 in 10.0 mi WSW 6.9 mph - N/A   Partly Cloudy
12:53 PM 89.1 °F 98.0 °F 73.9 °F 61% 30.04 in 10.0 mi WSW 10.4 mph - N/A   Clear
1:53 PM 88.0 °F 97.5 °F 75.0 °F 65% 30.03 in 10.0 mi WSW 11.5 mph - N/A   Clear
2:53 PM 89.1 °F 98.0 °F 73.9 °F 61% 30.01 in 10.0 mi WSW 13.8 mph - N/A   Clear
3:53 PM 88.0 °F 95.6 °F 73.0 °F 61% 29.99 in 10.0 mi West 13.8 mph - N/A   Clear
4:53 PM 88.0 °F 95.6 °F 73.0 °F 61% 29.98 in 10.0 mi WSW 13.8 mph - N/A   Clear
5:53 PM 86.0 °F 93.0 °F 73.0 °F 65% 29.98 in 10.0 mi West 11.5 mph - N/A   Clear
6:53 PM 84.9 °F 92.1 °F 73.9 °F 69% 29.98 in 10.0 mi West 10.4 mph - N/A   Partly Cloudy
7:53 PM 82.9 °F 89.4 °F 73.9 °F 74% 29.98 in 10.0 mi West 4.6 mph - N/A   Partly Cloudy
8:53 PM 82.0 °F 87.4 °F 73.0 °F 74% 29.99 in 10.0 mi WNW 4.6 mph - N/A   Partly Cloudy
9:53 PM 82.0 °F 87.9 °F 73.9 °F 76% 29.98 in 10.0 mi SW 5.8 mph - N/A   Clear
10:53 PM 82.0 °F 87.9 °F 73.9 °F 76% 29.99 in 10.0 mi SW 4.6 mph - N/A   Clear
11:53 PM 82.0 °F 88.6 °F 75.0 °F 79% 30.00 in 10.0 mi WSW 5.8 mph - N/A   Partly Cloudy